Weather in Selikhino

Russia / Khabarovsk Krai     50°22′01″N   137°30′06″E
temp.,
°C
wind,
m/s
gust,
m/s
humid.,
%
clouds,
%
prec.,
mm/h
press.,
hPa
HPBL,
m
21 january, fri
fri2101:00−26sse2210076 0.0 103115
04:00−26sse229999 0.1 103223
07:00−25s2399100 0.1 103347
10:00−23ssw3697100 0.1 1033211
13:00−20ssw4691100 0.1 1033499
16:00−19ssw4691100 0.1 1031490
19:00−25sse2210094 0.0 103310
22:00−26se2210096 0.1 103214
22 january, sat
sat2201:00−26se2210095 0.0 103212
04:00−27sse2210092 0.1 103211
07:00−28sse2210085 0.0 103213
10:00−24s259872 0.0 1033134
13:00−20ssw4691100 0.0 1032408
16:00−19ssw469099 0.0 1031379
19:00−25sse229922 0.0 103112
22:00−26se2210043 0.0 103118
23 january, sun
sun2301:00−26se2210035 0.0 103013
04:00−27sse2210085 0.0 102912
07:00−28sse1110097 0.0 102910
10:00−24s239989 0.1 102991
13:00−20sw3492100 0.0 1028387
16:00−19ssw3590100 0.0 1027390
19:00−27sse2210023 0.0 102710
22:00−28se2210061 0.0 102713
24 january, mon
mon2401:00−28sse2210066 0.0 102715
04:00−28sse229993 0.0 102717
07:00−28sse239982 0.0 102730
10:00−24s389787 0.0 1027220
13:00−20ssw5792100 0.0 1026460
16:00−20ssw4792100 0.1 1025410
19:00−25sse2210096 0.0 102613
22:00−25se229999 0.1 102616
25 january, tue
tue2501:00−25se2210097 0.0 102611
04:00−27sse11100100 0.1 10269
07:00−27se1110099 0.0 10269
10:00−23s129993 0.1 102650
13:00−18sw239199 0.0 1024349
16:00−17sw238892 0.0 1023314
19:00−25se1110040 0.0 10249
22:00−26ese1110053 0.0 10249